Tracking 21612 objects as of 20-Oct-2020
HD Live streaming from Space Station
objects crossing your sky now

COSMOS 1703

Track COSMOS 1703 now!
10-day predictions
COSMOS 1703 is classified as:


NORAD ID: 16262
Int'l Code: 1985-108A
Perigee: 530.4 km
Apogee: 547.9 km
Inclination: 82.5 °
Period: 95.3 minutes
Semi major axis: 6910 km
RCS: 6.9173 m2 (large)
Launch date: November 22, 1985
Source: Commonwealth of Independent States (former USSR) (CIS)
Launch site: PLESETSK MISSILE AND SPACE COMPLEX (PKMTR)
aabbcc
Your satellite tracking list
Your tracking list is empty




NASA's NSSDC Master Catalog

Two Line Element Set (TLE):
1 16262U 85108A   20294.50080386 +.00000875 +00000-0 +49998-4 0  9999
2 16262 082.4750 129.3896 0012693 042.0644 318.1558 15.11371805903054
Source of the keplerian elements: AFSPC